Regional Weather Roundup
Issued by NWS

Home | Current Version | Previous Version | Text Only | Print | Product List | Glossary On
Versions: 1 2 3 4 5 6 7 8 9 10 11 12 13 14 15 16 17 18 19 20 21 22 23 24 25 26 27
000
ASUS45 KTFX 192210
RWRMT
MONTANA REGIONAL WEATHER ROUNDUP
NATIONAL WEATHER SERVICE GREAT FALLS MT
400 PM MDT THU OCT 19 2017

NOTE: "FAIR" INDICATES FEW OR NO CLOUDS BELOW 12000 FEET WITH NO
SIGNIFICANT WEATHER AND/OR OBSTRUCTIONS TO VISIBILITY.

MTZ001>007-043-192300-
WEST OF THE DIVIDE

CITY           SKY/WX    TMP DP  RH WIND       PRES   REMARKS
KALISPELL      MOSUNNY   68  26  20 S15G24    29.54F
MISSOULA       MOSUNNY   69  39  33 SE7       29.58F
BUTTE          CLOUDY    70  10  10 S15G24    29.72F
MULLAN PASS    CLOUDY    49  25  39 SW10G17   29.66F
DEER LODGE       N/A     72  14  11 S14G26    29.65F
EUREKA           N/A     59  34  38 MISG        N/A
HAMILTON         N/A     73  14  10 S13G18    29.60F
LIBBY            N/A     64  28  25 CALM      29.54S
PLAINS           N/A     73  28  19 SW8       29.58F
$$

MTZ008-052>055-192300-
SOUTHWEST MONTANA

CITY           SKY/WX    TMP DP  RH WIND       PRES   REMARKS
BOZEMAN        SUNNY     76  11   8 SW18G25   29.67F
DILLON         CLOUDY    71  14  11 S22G29    29.72F
W YELLOWSTONE  SUNNY     61   9  12 SW15G23   29.92S
ENNIS          SUNNY     68  10  10 S28G35    29.82S
THREE FORKS      N/A     75  14  10 S23       29.70F
TWIN BRIDGES     N/A     74  16  11 SE6       29.74F
$$

MTZ009-010-012-014-046-048-049-054-192300-
EAST SLOPES AND CENTRAL MONTANA

CITY           SKY/WX    TMP DP  RH WIND       PRES   REMARKS
CUT BANK       PTSUNNY   68  14  12 W22       29.53F
GREAT FALLS    CLOUDY    72  20  14 S5        29.57F
MALMSTROM AFB  CLOUDY    73  21  14 SW9       29.56F
HELENA         CLOUDY    75  17  11 S13       29.60F
BOWMANS CRNR     N/A     70  17  13 SW20G25   29.57F
CHOTEAU          N/A     73  10   9 SW17G26   29.58F
FAIRFIELD        N/A     69  18  14 SW14      29.56F
POWER            N/A     72  17  12 SW17      29.56F
RAYNESFORD       N/A     73  18  12 SW5       29.61F
ULM              N/A     75  20  12 S17G23    29.56F
$$

MTZ011-013-016-021-045-047-050-051-192300-
NORTH CENTRAL MONTANA

CITY           SKY/WX    TMP DP  RH WIND       PRES   REMARKS
HAVRE          CLOUDY    76  18  11 SW23      29.53F
LEWISTOWN      SUNNY     75  19  12 SW14      29.65F
N BAR RANCH      N/A     73  14  10 SW17      29.71F
CHINOOK          N/A     79  19  11 SW14G21   29.54S
DENTON           N/A     76  21  13 CALM      29.57F
GEYSER           N/A     74  16  11 MISG      29.62F
GRASS RANGE      N/A     75  20  13 S14       29.61F
JUDITH GAP       N/A     73  17  12 S18G26    29.67F
WINIFRED         N/A     75  18  11 S7G17     29.61F
$$

MTZ017>020-022>027-061-062-192300-
NORTHEAST MONTANA

CITY           SKY/WX    TMP DP  RH WIND       PRES   REMARKS
GLASGOW        SUNNY     81  22  11 W15       29.58F
JORDAN           N/A     82  21  10 SW12      29.61F
WOLF POINT     SUNNY     84  21  10 W10       29.59F
MALTA          SUNNY     79  21  11 W14       29.56S
PLENTYWOOD       N/A     79  27  14 SW13      29.61S
POPLAR           N/A     82  25  12 W12       29.60F
SCOBEY           N/A     79  27  15 SW17      29.62F
$$

MTZ028>42-056>058-192300-
SOUTHCENTRAL AND SOUTHEAST MONTANA

CITY           SKY/WX    TMP DP  RH WIND       PRES   REMARKS
BAKER          SUNNY     79  29  16 S12       29.72F
BILLINGS       MOSUNNY   79  22  12 SW16G22   29.67F
LIVINGSTON     SUNNY     75  10   8 SW25G35   29.69F
MILES CITY     SUNNY     81  29  15 S12       29.66F
BIG TIMBER     SUNNY     73  19  13 E6        29.72F
EKALAKA          N/A     76  25  15 SE9       29.75F
FORSYTH          N/A     82  25  12 CALM      29.64F
HARLOWTON        N/A     75  17  11 MISG      29.66F
LAUREL           N/A     79  19  11 S20       29.67F
$$

REGIONAL REPORTS...DAKOTAS

CITY           SKY/WX    TMP DP  RH WIND       PRES   REMARKS
WILLISTON      SUNNY     79  34  19 S7        29.64F
MINOT          SUNNY     79  32  18 S10       29.65F
DICKINSON      SUNNY     80  28  15 S8        29.70F
BEACH            N/A     79  21  11 SW7       29.73F
CROSBY           N/A     79  27  14 SW17      29.61S
TIOGA            N/A     75  30  19 S13       29.67S
WATFORD CITY     N/A     79  30  17 SW8       29.65F
BISMARCK       SUNNY     77  38  24 SE14      29.72R
GRAND FORKS    MOSUNNY   73  40  30 S16G25    29.72F
FARGO          SUNNY     73  41  31 S17       29.76F
BUFFALO SD       N/A     81  25  12 SE7       29.68F
RAPID CITY     SUNNY     83  15   8 SW20      29.76R
$$

REGIONAL REPORTS...WYOMING/IDAHO/WASHINGTON

CITY           SKY/WX    TMP DP  RH WIND       PRES   REMARKS
GILLETTE       CLOUDY    77  17  10 S16       29.76F
SHERIDAN       CLOUDY    81  27  14 E6        29.71F
BUFFALO WY     CLOUDY    79  19  10 N10       29.76F
CODY           SUNNY     72  22  15 SE9       29.80F
YELLOWSTONE LA   N/A     58  11  15 W8        30.00F
IDAHO FALLS    MOSUNNY   70  23  17 SW10      29.84F
SALMON         CLOUDY    77  15   9 S17G29    29.63F
BOISE          MOSUNNY   77  13   9 S13       29.69F
SPOKANE        CLOUDY    57  43  59 S6        29.57F
$$

REGIONAL REPORTS...ALBERTA

CITY           SKY/WX    TMP DP  RH WIND       PRES   REMARKS
EDMONTON       SUNNY     57  36  44 S5        29.35F
CALGARY        PTSUNNY   59  34  38 S16G23    29.39F
LETHBRIDGE     PTSUNNY   68  32  26 SW10G17   29.48F
MEDICINE HAT   CLOUDY    72  27  18 SW10      29.46S
$$

REGIONAL REPORTS...SASKATCHEWAN

CITY           SKY/WX    TMP DP  RH WIND       PRES   REMARKS
SWIFT CURRENT  SUNNY     70  27  19 SW15G22   29.51S
REGINA         PTSUNNY   73  27  17 W17G24    29.52F
SASKATOON      PTSUNNY   61  39  44 SW7       29.46R
$$




USA.gov is the U.S. government's official web portal to all federal, state and local government web resources and services.